Provincetown, MA

11:58 PM EST on February 06, 2016 (GMT -0500)
Provincetown Municipal

Weather History for KPVC - June, 2014

Change the Weather History Date:

Wednesday, June 4, 2014

  Actual Average Record
Temperature  
Mean Temperature 58 °F -  
Max Temperature 66 °F 64 °F 80 °F (1954)
Min Temperature 51 °F 50 °F 37 °F (2015)
Degree Days  
Heating Degree Days 6    
Growing Degree Days 8 (Base 50)    
Moisture  
Dew Point 54 °F    
Average Humidity 90    
Maximum Humidity 100    
Minimum Humidity 73    
Precipitation  
Precipitation 0.61 in - - ()
Sea Level Pressure  
Sea Level Pressure 29.86 in    
Wind  
Wind Speed - (North)    
Max Wind Speed -    
Max Gust Speed -    
Visibility 7 miles    
Events      
Averages and records for this station are not official NWS values.
T = Trace of Precipitation, MM = Missing Value Source: NWS Daily Summary

Daily Weather History Graph

Daily Weather History Graph

Search for Another Location

Airport or City:

Trip Planner

Search our weather history database for the weather conditions in past years. The results will help you decide how hot, cold, wet, or windy it might be!

Date:

Astronomy

Jun. 04, 2014 Rise Set
Actual Time 5:06 AM EDT 8:12 PM EDT
Civil Twilight 4:32 AM EDT 8:46 PM EDT
Nautical Twilight 3:49 AM EDT 9:29 PM EDT
Astronomical Twilight 2:57 AM EDT 10:21 PM EDT
Moon 11:27 AM EDT (6/4) 12:05 AM EDT (6/4)
Length of Visible Light 16h 13m
Length of Day
15h 06m
Waxing Crescent, 39% of the Moon is Illuminated
Jun 4
Waxing Crescent
Jun 5
First Quarter
Jun 13
Full
Jun 19
Last Quarter
Jun 27
New

Hourly Weather History & Observations

Time (EDT) Temp. Dew Point Humidity Pressure Visibility Wind Dir Wind Speed Gust Speed Precip Events Conditions
12:15 AM 53.6 °F 51.8 °F 94% 29.93 in 10.0 mi North - - N/A   Clear
12:35 AM 53.6 °F 51.8 °F 94% 29.93 in 10.0 mi North - - 0.01 in   Clear
1:15 AM 53.6 °F 51.8 °F 94% 29.91 in 10.0 mi North - - N/A   Clear
1:35 AM 53.6 °F 51.8 °F 94% 29.90 in 10.0 mi North - - N/A   Clear
1:55 AM 53.6 °F 51.8 °F 94% 29.90 in 10.0 mi North - - 0.02 in   Clear
2:15 AM 53.6 °F 51.8 °F 94% 29.89 in 10.0 mi North - - 0.03 in   Clear
2:35 AM 51.8 °F 50.0 °F 94% 29.89 in 5.0 mi North - - 0.04 in   Mostly Cloudy
2:55 AM 51.8 °F 50.0 °F 94% 29.88 in 1.8 mi North - - 0.04 in   Overcast
3:15 AM 51.8 °F 50.0 °F 94% 29.88 in 2.5 mi North - - N/A   Overcast
3:35 AM 51.8 °F 51.8 °F 100% 29.89 in 2.5 mi North - - N/A   Overcast
3:55 AM 51.8 °F 51.8 °F 100% 29.88 in 2.5 mi North - - N/A   Overcast
4:15 AM 51.8 °F 50.0 °F 94% 29.88 in 3.0 mi North - - N/A   Overcast
4:35 AM 51.8 °F 51.8 °F 100% 29.88 in 2.0 mi North - - N/A   Overcast
4:55 AM 51.8 °F 51.8 °F 100% 29.87 in 1.0 mi North - - N/A   Overcast
5:15 AM 53.6 °F 51.8 °F 94% 29.89 in 0.5 mi North - - 0.03 in   Overcast
5:35 AM 53.6 °F 51.8 °F 94% 29.89 in 0.2 mi North - - 0.03 in   Overcast
5:55 AM 53.6 °F 51.8 °F 94% 29.89 in 0.2 mi North - - 0.03 in   Overcast
6:15 AM 53.6 °F 51.8 °F 94% 29.89 in 0.2 mi North - - 0.03 in   Overcast
6:35 AM 53.6 °F 51.8 °F 94% 29.89 in 0.2 mi North - - 0.04 in   Overcast
6:55 AM 53.6 °F 53.6 °F 100% 29.90 in 0.5 mi North - - 0.10 in   Overcast
7:15 AM 53.6 °F 53.6 °F 100% 29.90 in 0.2 mi North - - 0.04 in   Overcast
7:35 AM 53.6 °F 53.6 °F 100% 29.90 in 1.0 mi North - - 0.09 in   Overcast
7:55 AM 53.6 °F 53.6 °F 100% 29.90 in 1.2 mi North - - 0.09 in   Overcast
8:15 AM 55.4 °F 53.6 °F 94% 29.90 in 0.5 mi North - - N/A   Overcast
8:35 AM 55.4 °F 53.6 °F 94% 29.90 in 0.5 mi North - - N/A   Overcast
8:55 AM 55.4 °F 53.6 °F 94% 29.91 in 0.5 mi North - - N/A   Overcast
9:15 AM 55.4 °F 53.6 °F 94% 29.91 in 2.5 mi North - - N/A   Overcast
9:35 AM 55.4 °F 53.6 °F 94% 29.91 in 1.5 mi North - - N/A   Overcast
9:55 AM 55.4 °F 53.6 °F 94% 29.90 in 2.0 mi North - - 0.04 in   Overcast
10:15 AM 55.4 °F 53.6 °F 94% 29.90 in 10.0 mi North - - 0.04 in   Overcast
10:35 AM 55.4 °F 53.6 °F 94% 29.90 in 10.0 mi North - - 0.06 in   Overcast
11:15 AM 59.0 °F 53.6 °F 82% 29.89 in 10.0 mi North - - 0.06 in   Overcast
11:35 AM 59.0 °F 53.6 °F 82% 29.88 in 10.0 mi North - - 0.11 in   Overcast
11:55 AM 60.8 °F 53.6 °F 77% 29.87 in 10.0 mi North - - 0.11 in   Overcast
12:15 PM 60.8 °F 55.4 °F 82% 29.87 in 10.0 mi North - - 0.01 in   Overcast
12:35 PM 60.8 °F 53.6 °F 77% 29.86 in 10.0 mi North - - 0.05 in   Overcast
12:55 PM 62.6 °F 55.4 °F 77% 29.86 in 10.0 mi North - - 0.06 in   Overcast
1:15 PM 62.6 °F 55.4 °F 77% 29.86 in 10.0 mi North - - 0.02 in   Mostly Cloudy
1:35 PM 62.6 °F 55.4 °F 77% 29.85 in 10.0 mi North - - 0.03 in   Overcast
1:55 PM 64.4 °F 55.4 °F 73% 29.84 in 10.0 mi North - - 0.03 in   Mostly Cloudy
2:15 PM 66.2 °F 57.2 °F 73% 29.83 in 10.0 mi North - - 0.01 in   Scattered Clouds
2:35 PM 64.4 °F 55.4 °F 73% 29.83 in 10.0 mi North - - 0.02 in   Scattered Clouds
2:55 PM 62.6 °F 55.4 °F 77% 29.83 in 10.0 mi North - - 0.02 in   Mostly Cloudy
3:15 PM 62.6 °F 55.4 °F 77% 29.82 in 10.0 mi North - - N/A   Mostly Cloudy
3:35 PM 62.6 °F 55.4 °F 77% 29.83 in 10.0 mi North - - N/A   Mostly Cloudy
3:55 PM 60.8 °F 55.4 °F 82% 29.83 in 10.0 mi North - - N/A   Overcast
4:15 PM 62.6 °F 55.4 °F 77% 29.82 in 10.0 mi North - - N/A   Overcast
4:35 PM 62.6 °F 55.4 °F 77% 29.81 in 10.0 mi North - - N/A   Overcast
4:55 PM 60.8 °F 55.4 °F 82% 29.81 in 7.0 mi North - - N/A   Mostly Cloudy
5:15 PM 60.8 °F 57.2 °F 88% 29.81 in 10.0 mi North - - N/A   Overcast
5:35 PM 60.8 °F 57.2 °F 88% 29.81 in 10.0 mi North - - N/A   Overcast
5:55 PM 60.8 °F 57.2 °F 88% 29.81 in 10.0 mi North - - N/A   Overcast
6:15 PM 60.8 °F 57.2 °F 88% 29.81 in 10.0 mi North - - N/A   Overcast
6:35 PM 60.8 °F 57.2 °F 88% 29.81 in 10.0 mi North - - 0.01 in   Overcast
6:55 PM 60.8 °F 55.4 °F 82% 29.81 in 10.0 mi North - - 0.01 in   Overcast
7:15 PM 59.0 °F 55.4 °F 88% 29.80 in 7.0 mi North - - N/A   Overcast
7:35 PM 57.2 °F 55.4 °F 94% 29.80 in 10.0 mi North - - N/A   Overcast
7:55 PM 57.2 °F 55.4 °F 94% 29.79 in 10.0 mi North - - N/A   Mostly Cloudy
8:15 PM 57.2 °F 55.4 °F 94% 29.79 in 10.0 mi North - - N/A   Scattered Clouds
8:35 PM 57.2 °F 55.4 °F 94% 29.80 in 10.0 mi North - - N/A   Mostly Cloudy
8:55 PM 57.2 °F 55.4 °F 94% 29.81 in 10.0 mi North - - N/A   Overcast
9:15 PM 57.2 °F 55.4 °F 94% 29.81 in 10.0 mi North - - N/A   Overcast
9:35 PM 57.2 °F 55.4 °F 94% 29.81 in 10.0 mi North - - N/A   Overcast
9:55 PM 57.2 °F 55.4 °F 94% 29.82 in 10.0 mi North - - N/A   Overcast
10:15 PM 57.2 °F 55.4 °F 94% 29.81 in 10.0 mi North - - N/A   Overcast
10:35 PM 57.2 °F 55.4 °F 94% 29.80 in 10.0 mi North - - N/A   Overcast
11:15 PM 57.2 °F 55.4 °F 94% 29.80 in 10.0 mi North - - N/A   Overcast
11:35 PM 57.2 °F 55.4 °F 94% 29.80 in 10.0 mi North - - N/A   Overcast
11:55 PM 57.2 °F 55.4 °F 94% 29.80 in 5.0 mi North - - N/A   Overcast